KUIPER-00087

Last updated on Sat Aug 16 2025 00:02:06 GMT+0000 (Coordinated Universal Time)

1 64833U 25151T 25227.07250964 .00020604 00000+0 58814-3 0 9999 2 64833 51.8779 143.8831 0005042 239.4793 120.5695 15.35988084 4574
UTC large
Height (km)
Speed (km/s)
/
Latitude / Longitude
Inclination (degrees)
Orbital Period (minutes)
Azimuth
Elevation
Range (km)
Doppler Factor

Next 0 passes for location: London (51.5072 / 0.1276)

Sorry there are no passes over London.